Location: El Escondido
(32.5111°N, 116.6697°W)
Time: 15:27:50
(UTC+00:00)

Cosmos 1417 Rocket - Pass Details

Date: 03 August 2024
Orbit: 952 x 997 km, 83.0° (Epoch: 08 September)

Event Time Altitude Azimuth Distance (km) Brightness Sun altitude
Exits shadow 12:08:31 - 193° (SSW) 3,618 7.1 -11.2°
Reaches altitude 10° 12:11:01 10° 196° (SSW) 2,674 6.4 -10.7°
Maximum altitude 12:17:03 63° 277° (W) 1,056 4.5 -9.6°
Drops below altitude 10° 12:23:08 10° 359° (N) 2,683 7.2 -8.5°
Sets 12:25:40 0° 2° (N) 3,634 7.9 -8.0°
